The Eastern Iowa Airport
Tuesday 8:52 PM
Temperature60° (79°/51°)
Dew Point55°
Relative Humidity83
%
Visibility10
mi
Pressure1004.4
mb
Wind Direction
Wind SpeedCalm
Precipitation TodayTrace

Last 30 Observations

Time PresWx Temp DP Feels RH% Vsby Pressure Ceiling Direction Speed 1h Precip
8:16 PM 65° 57° 76
%
10
mi
1004.1
mb
Calm 0.00"
7:52 PM 66° 58° 75
%
10
mi
1003.4
mb
Calm 0.00"
7:48 PM 64° 59° 83
%
10
mi
1003.1
mb
N
360°
3
mph
0.00"
7:37 PM 64° 59° 84
%
10
mi
1003.1
mb
6,000
ft
NNW
330°
5
mph
0.00"
7:06 PM TS 74° 57° 56
%
10
mi
1002.7
mb
SW
230°
9
mph
0.00"
6:52 PM 75° 57° 54
%
10
mi
1002.4
mb
WSW
250°
10
mph
0.00"
6:44 PM 75° 58° 55
%
10
mi
1002.0
mb
SW
230°
10
mph
0.00"
5:52 PM 76° 57° 52
%
10
mi
1002.7
mb
W
260°
16
mph
0.00"
4:52 PM 77° 59° 54
%
10
mi
1002.7
mb
4,300
ft
W
270°
18
mph
0.00"
3:52 PM 78° 60° 54
%
10
mi
1002.7
mb
SW
220°
17
mph
0.00"
2:52 PM 76° 60° 58
%
10
mi
1003.4
mb
SW
220°
16
mph
0.00"
1:52 PM 74° 60° 62
%
10
mi
1004.1
mb
SW
220°
10
mph
(G23)
0.00"
1:00 PM 73° 61° 66
%
10
mi
1004.8
mb
SSW
200°
14
mph
0.00"
12:52 PM 72° 60° 66
%
10
mi
1004.8
mb
2,300
ft
SSW
200°
16
mph
0.00"
12:49 PM 72° 61° 69
%
10
mi
1005.1
mb
2,300
ft
SSW
200°
14
mph
0.00"
11:52 AM 69° 60° 73
%
10
mi
1005.8
mb
SSW
210°
11
mph
0.00"
11:38 AM 69° 60° 73
%
9
mi
1006.1
mb
SSW
200°
11
mph
0.00"
10:52 AM 67° 60° 79
%
8
mi
1006.4
mb
1,500
ft
SW
230°
10
mph
0.00"
10:49 AM 66° 61° 83
%
8
mi
1006.4
mb
1,500
ft
SW
220°
9
mph
0.00"
9:52 AM 64° 59° 84
%
8
mi
1006.8
mb
1,200
ft
WSW
250°
11
mph
0.00"
9:41 AM 63° 59° 87
%
7
mi
1006.8
mb
1,200
ft
SW
220°
8
mph
0.00"
8:52 AM BR 61° 59° 93
%
6
mi
1006.8
mb
SW
230°
11
mph
0.00"
7:52 AM BR 56° 56° 100
%
4
mi
1006.4
mb
S
190°
9
mph
0.00"
7:26 AM BR 54° 54° 100
%
3
mi
1006.4
mb
S
180°
7
mph
0.00"
6:52 AM BR 52° 52° 100
%
mi
1006.1
mb
S
190°
8
mph
0.00"
6:41 AM BR 52° 52° 100
%
mi
1006.1
mb
S
190°
9
mph
0.00"
5:52 AM BR 52° 52° 100
%
4
mi
1006.1
mb
S
180°
9
mph
0.00"
4:52 AM BR 52° 52° 100
%
5
mi
1007.1
mb
S
190°
8
mph
0.00"
3:52 AM BR 53° 53° 100
%
5
mi
1007.8
mb
S
190°
8
mph
0.00"
2:52 AM BR 53° 53° 100
%
5
mi
1008.5
mb
6,000
ft
S
170°
5
mph
0.00"